Regional Weather Roundup
Issued by NWS

Home | Current Version | Previous Version | Graphics & Text | Print | Product List | Glossary On
Versions: 1 2 3 4 5 6 7 8 9 10 11 12 13 14 15 16 17 18 19 20 21 22 23 24 25 26 27 28 29 30 31 32 33 34 35 36 37 38 39 40 41 42 43 44 45 46 47 48 49 50
000
ASUS45 KBOI 031710
RWRID

IDAHO REGIONAL WEATHER ROUNDUP
NATIONAL WEATHER SERVICE BOISE ID
1100 AM MDT THU SEP 03 2015

NOTE: "FAIR" INDICATES FEW OR NO CLOUDS BELOW 12000 FEET
WITH NO SIGNIFICANT WEATHER AND/OR OBSTRUCTIONS TO VISIBILITY

IDZ012-014-031800-
SOUTHWEST IDAHO


CITY           SKY/WX    TMP DP  RH WIND       PRES   REMARKS
BOISE          PTSUNNY   64  42  44 NW20      29.91F
CALDWELL       PTSUNNY   59  36  41 NW16      29.97R
MOUNTAIN HOME  CLOUDY    65  41  41 NW25G31   29.91S
$$

IDZ016-017-031800-
SOUTHCENTRAL IDAHO


CITY           SKY/WX    TMP DP  RH WIND       PRES   REMARKS
BURLEY         SUNNY     64  43  46 W10G20    29.93S
JEROME         MOSUNNY   63  43  48 SW13      29.94S
TWIN FALLS     MOSUNNY   65  39  38 W14       29.94S
$$

IDZ019>023-031800-
SOUTHEAST IDAHO


CITY           SKY/WX    TMP DP  RH WIND       PRES   REMARKS
IDAHO FALLS    MOSUNNY   68  41  37 S15       29.93S
POCATELLO      MOSUNNY   69  40  34 SW15      29.94S
REXBURG        PTSUNNY   68  38  33 S16       29.92S
$$

IDZ006-010-011-018-031-032-031800-
CENTRAL IDAHO MOUNTAINS


CITY           SKY/WX    TMP DP  RH WIND       PRES   REMARKS
MCCALL         LGT RAIN  47  43  86 NE3       29.98S
HAILEY         PTSUNNY   63  45  51 SE12      29.96S
STANLEY          N/A     55  34  45 CALM      29.98R
SALMON         CLOUDY    61  43  51 N5        29.88R
CHALLIS        CLOUDY    61  41  47 NE3       29.86S
$$

IDZ002-004-006-007-026-031800-
NORTHERN IDAHO


CITY           SKY/WX    TMP DP  RH WIND       PRES   REMARKS
LEWISTON       CLOUDY    55  48  77 SE9       29.98R
LOWELL           N/A     56  53  90 CALM      29.98S
COEUR D`ALENE  SUNNY     57  37  47 S8G16     29.96S
MULLAN PASS    CLOUDY    40  38  93 VRB5      29.99S
$$


USA.gov is the U.S. government's official web portal to all federal, state and local government web resources and services.